[[{"header":{"parameterUnit":"m.s-1","parameterCategory":1,"la1":30.2991,"la2":30.254,"lo1":-89.0895,"lo2":-89.0444,"dy":0.0017,"dx":0.0017,"nx":28,"ny":28,"refTime":"2024-09-03T09:00:00:Z","depth":0,"parameterNumber":2,"parameterNumberName":"U-component_of_WINDS"},"data":[0,0,0,0,0,0,0,0,0,0,0,0,0,0,0,0,0,0,0,0,0,0,0,0,0,0,0,0,0,0,0,0,0,0,0,0,0,0,0,0,0,0,0,0,0,0,0,0,0,0,0,0,0,0,0,0,0,0,-8.1584,-8.1584,0,-8.1651,-8.1652,-8.1652,-8.1546,-8.1542,-8.1539,-8.1535,-8.1597,-8.1602,-8.1607,0,0,0,0,0,0,0,0,0,0,0,0,0,-8.1355,-8.136,-8.1584,-8.1584,-8.1585,-8.1651,-8.1652,-8.1653,-8.1547,-8.1542,-8.1538,-8.1534,-8.1595,-8.1601,-8.1607,0,0,0,0,0,0,0,0,0,0,0,0,0,-8.1442,-8.1362,-8.1583,-8.1541,-8.1537,-8.1651,-8.1652,-8.1653,-8.1548,-8.1542,-8.1537,-8.1532,-8.1593,-8.16,-8.1608,-8.1764,0,0,-8.1631,-8.1634,0,0,0,0,0,0,0,0,-8.1437,-8.145,-8.1546,-8.1544,-8.154,-8.1585,-8.1594,-8.169,-8.1549,-8.1544,-8.1535,-8.1529,-8.1597,-8.1604,-8.1628,-8.1767,-8.1769,-8.1632,-8.1636,-8.1639,-8.1642,0,0,0,0,0,0,0,-8.1431,-8.1446,-8.161,-8.1548,-8.1544,-8.1515,-8.1522,-8.1611,-8.16,-8.1544,-8.1536,-8.1546,-8.1594,-8.1621,-8.1629,-8.177,-8.1631,-8.1638,-8.1643,-8.1646,-8.2037,-8.2043,0,0,0,0,0,0,-8.1431,-8.1442,-8.1608,-8.1612,-8.1474,-8.1524,-8.1531,-8.1576,-8.1598,-8.1597,-8.1551,-8.1541,-8.1611,-8.162,-8.163,-8.1811,-8.1639,-8.1646,-8.1651,-8.2031,-8.2038,-8.2045,0,0,0,0,0,0,-8.1427,-8.1447,-8.1605,-8.1525,-8.1543,-8.1534,-8.1585,-8.158,-8.1607,-8.1604,-8.16,-8.1581,-8.1607,-8.162,-8.1731,-8.1812,-8.165,-8.1657,-8.2024,-8.2034,-8.2042,-8.2176,0,0,0,0,0,0,-8.1421,-8.1446,-8.1507,-8.1528,-8.1548,-8.1708,-8.159,-8.1585,-8.1621,-8.1609,-8.1631,-8.1629,-8.1603,-8.1721,-8.1739,-8.1819,-8.1663,-8.2017,-8.2029,-8.2039,-8.2165,-8.2189,-8.221,0,0,0,0,0,-8.1413,-8.1541,-8.1511,-8.1531,-8.1624,-8.1712,-8.1724,-8.1693,-8.1628,-8.1687,-8.1686,-8.1629,-8.1802,-8.1733,-8.1753,-8.1837,-8.2012,-8.2025,-8.2038,-8.2155,-8.2184,-8.2209,0,0,0,0,0,0,-8.1527,-8.1543,-8.1509,-8.1649,-8.1681,-8.1694,-8.1768,-8.1726,-8.1775,-8.1761,-8.1719,-8.1725,-8.1844,-8.1852,-8.1776,-8.1987,-8.1895,-8.1913,-8.1977,-8.2005,-8.2027,-8.202,-8.1669,0,0,0,0,0,-8.157,-8.1643,-8.1651,-8.1773,-8.1791,-8.1778,-8.1815,-8.1789,-8.1819,-8.1831,-8.1837,-8.1866,-8.1927,-8.1967,-8.2023,-8.2167,-8.2168,-8.2235,-8.2257,-8.2275,-8.2289,-8.2363,-8.2391,-8.2088,-8.2088,-8.2088,0,0,-8.1656,-8.1674,-8.1721,-8.1797,-8.1818,-8.1891,-8.1789,-8.1872,-8.1924,-8.1843,-8.1948,-8.1954,-8.1984,-8.2112,-8.2168,-8.2122,-8.2374,-8.2292,-8.2307,-8.2311,-8.2379,-8.2408,-8.2434,-8.2097,-8.2096,-8.2094,0,0,-8.1849,-8.1873,-8.1975,-8.1999,-8.2034,-8.2025,-8.205,-8.2071,-8.2072,-8.2178,-8.2117,-8.2179,-8.2285,-8.2308,-8.2333,-8.2538,-8.2486,-8.2557,-8.2672,-8.2744,-8.2768,-8.2789,-8.2857,-8.2883,-8.2573,-8.2573,-8.2573,0,-8.1951,-8.2062,-8.2032,-8.2119,-8.2152,-8.2085,-8.2187,-8.2211,-8.2262,-8.2285,-8.2233,-8.2364,-8.238,-8.251,-8.256,-8.2585,-8.2609,-8.2552,-8.2768,-8.2788,-8.2807,-8.2872,-8.2898,-8.2581,-8.258,-8.2579,-8.2579,0,-8.2182,-8.226,-8.2339,-8.2391,-8.2434,-8.2528,-8.251,-8.2557,-8.2528,-8.2523,-8.263,-8.2648,-8.2704,-8.2735,-8.2707,-8.2861,-8.2831,-8.2775,-8.268,-8.2845,-8.2904,-8.2929,-8.2593,-8.259,-8.2587,-8.2585,0,0,-8.2445,-8.2483,-8.2512,-8.2534,-8.2569,-8.2626,-8.2717,-8.2775,-8.2813,-8.2852,-8.2923,-8.3015,-8.2964,-8.2993,-8.2967,-8.3032,-8.3187,-8.2967,-8.2967,-8.3003,-8.3354,-8.3392,-8.3421,-8.3156,-8.316,-8.3164,-8.3349,0,-8.2634,-8.2792,-8.2769,-8.2919,-8.2988,-8.2927,-8.3005,-8.3033,-8.3032,-8.3089,-8.3086,-8.315,-8.308,-8.3096,-8.3158,-8.3156,-8.3256,-8.3143,-8.3217,-8.322,-8.3206,-8.3453,-8.3494,-8.3667,-8.3373,-8.3377,-8.338,0,-8.2875,-8.2924,-8.3082,-8.3105,-8.3133,-8.3204,-8.3254,-8.3311,-8.3341,-8.3335,-8.3369,-8.3332,-8.3419,-8.3328,-8.3445,-8.3368,-8.3398,-8.3402,-8.3408,-8.3409,-8.3306,-8.3456,-8.3723,-8.3747,-8.3418,-8.3415,-8.3412,0,-8.3045,-8.3151,-8.3258,-8.328,-8.331,-8.3361,-8.3376,-8.3401,-8.3437,-8.3481,-8.3503,-8.3557,-8.3585,-8.3626,-8.3603,-8.354,-8.3723,-8.3631,-8.3717,-8.3717,-8.3753,-8.375,-8.4023,-8.3782,-8.3782,-8.3781,-8.3781,0,-8.3255,-8.3352,-8.3334,-8.34,-8.3507,-8.3479,-8.3585,-8.3592,-8.3616,-8.3679,-8.3631,-8.369,-8.366,-8.3717,-8.3701,-8.3797,-8.3812,-8.3806,-8.38,-8.3808,-8.3808,-8.3822,-8.3807,-8.3788,-8.3787,-8.3785,-8.3784,0,-8.346,-8.3452,-8.3564,-8.3586,-8.3594,-8.3671,-8.3687,-8.3747,-8.3744,-8.3825,-8.3842,-8.3835,-8.39,-8.3884,-8.3954,-8.3943,-8.4064,-8.4045,-8.4054,-8.4047,-8.4132,-8.4122,-8.4419,-8.4454,-8.4196,-8.4199,-8.4201,0,-8.3591,-8.3665,-8.3696,-8.3736,-8.3755,-8.3821,-8.3858,-8.3835,-8.3875,-8.3916,-8.397,-8.4031,-8.4078,-8.4185,-8.4184,-8.4237,-8.4215,-8.4316,-8.4222,-8.4227,-8.421,-8.4204,-8.4209,-8.4332,-8.4335,-8.4338,-8.434,0,-8.3824,-8.3817,-8.3874,-8.3931,-8.3977,-8.4019,-8.4057,-8.4092,-8.4071,-8.4119,-8.4186,-8.4223,-8.4296,-8.4355,-8.4405,-8.4416,-8.4373,-8.4371,-8.4392,-8.4397,-8.4398,-8.4393,-8.4098,-8.4362,-8.436,-8.4358,-8.4357,-8.4356,-8.3992,-8.4054,-8.4085,-8.415,-8.4177,-8.4213,-8.427,-8.4275,-8.4331,-8.439,-8.4373,-8.4448,-8.4476,-8.4537,-8.4556,-8.4613,-8.4574,-8.4607,-8.4614,-8.4621,-8.4629,-8.4395,-8.4623,-8.4622,-8.4621,-8.4621,-8.462,0,-8.4217,-8.4235,-8.4296,-8.4351,-8.4401,-8.4362,-8.4402,-8.4445,-8.4513,-8.4544,-8.4592,-8.4668,-8.4727,-8.4733,-8.4787,-8.4831,-8.4812,-8.4846,-8.4839,-8.4841,-8.4663,-8.4637,-8.486,-8.4859,-8.4859,-8.4859,-8.4859,-8.4859,-8.434,-8.4442,-8.4439,-8.4553,-8.4569,-8.4644,-8.467,-8.4702,-8.4727,-8.4815,-8.4864,-8.4869,-8.4889,-8.4944,-8.4995,-8.4995,-8.5015,-8.5055,-8.5046,-8.4878,-8.4854,-8.4831,-8.4806,-8.5061,-8.5061,-8.5219,-8.522,-8.5222]},{"header":{"parameterUnit":"m.s-1","parameterCategory":1,"la1":30.2991,"la2":30.254,"lo1":-89.0895,"lo2":-89.0444,"dy":0.0017,"dx":0.0017,"nx":28,"ny":28,"refTime":"2024-09-03T09:00:00:Z","depth":0,"parameterNumber":3,"parameterNumberName":"V-component_of_WINDS"},"data":[0,0,0,0,0,0,0,0,0,0,0,0,0,0,0,0,0,0,0,0,0,0,0,0,0,0,0,0,0,0,0,0,0,0,0,0,0,0,0,0,0,0,0,0,0,0,0,0,0,0,0,0,0,0,0,0,0,0,2.801,2.801,0,2.7987,2.7987,2.7987,2.7929,2.7927,2.7926,2.7925,2.7901,2.7901,2.7902,0,0,0,0,0,0,0,0,0,0,0,0,0,2.8004,2.8004,2.801,2.801,2.8009,2.7987,2.7987,2.7987,2.7929,2.7927,2.7926,2.7924,2.7901,2.7901,2.7902,0,0,0,0,0,0,0,0,0,0,0,0,0,2.7996,2.8004,2.801,2.7978,2.7975,2.7987,2.7987,2.7987,2.7929,2.7927,2.7925,2.7924,2.79,2.7901,2.7902,2.7944,0,0,2.7904,2.7905,0,0,0,0,0,0,0,0,2.7997,2.7997,2.7983,2.798,2.7977,2.7959,2.7976,2.7972,2.793,2.7946,2.7925,2.7923,2.7922,2.792,2.792,2.7942,2.7941,2.7904,2.7905,2.7905,2.7905,0,0,0,0,0,0,0,2.7998,2.7997,2.8001,2.7983,2.7979,2.7965,2.7962,2.7975,2.7945,2.7945,2.7941,2.7939,2.7919,2.792,2.7919,2.7941,2.7904,2.7905,2.7905,2.7906,2.7998,2.7999,0,0,0,0,0,0,2.8003,2.7998,2.8002,2.8,2.7982,2.7966,2.7963,2.7966,2.7944,2.7939,2.794,2.7936,2.7919,2.7918,2.7918,2.7966,2.7905,2.7906,2.7906,2.7996,2.7998,2.8,0,0,0,0,0,0,2.8003,2.8004,2.8003,2.7998,2.7997,2.7969,2.7973,2.7967,2.7967,2.7941,2.7935,2.7946,2.7918,2.7917,2.7938,2.7964,2.7906,2.7907,2.7993,2.7996,2.7999,2.8061,0,0,0,0,0,0,2.8003,2.8004,2.8019,2.7999,2.7997,2.8023,2.7974,2.7968,2.7969,2.7963,2.7945,2.794,2.7916,2.7937,2.7939,2.7964,2.7907,2.7991,2.7995,2.7998,2.8057,2.8066,2.8074,0,0,0,0,0,2.8003,2.8037,2.802,2.8021,2.8016,2.8024,2.8023,2.7996,2.7971,2.7986,2.797,2.794,2.7961,2.794,2.7941,2.7967,2.7989,2.7994,2.7998,2.8053,2.8064,2.8074,0,0,0,0,0,0,2.806,2.8034,2.8015,2.8043,2.8037,2.8015,2.8032,2.8008,2.8008,2.8003,2.7969,2.7965,2.7991,2.7981,2.7957,2.8007,2.797,2.7975,2.8012,2.8022,2.8031,2.8032,2.7908,0,0,0,0,0,2.8076,2.8086,2.8062,2.809,2.8087,2.8061,2.8064,2.8043,2.8035,2.8031,2.8016,2.8009,2.8014,2.8018,2.8021,2.8056,2.8051,2.8074,2.8083,2.809,2.8094,2.8113,2.8123,2.8015,2.8015,2.8015,0,0,2.8109,2.8096,2.8104,2.8101,2.8093,2.8104,2.8059,2.8071,2.8079,2.8033,2.8052,2.8041,2.8031,2.8059,2.8071,2.8052,2.8124,2.8096,2.8102,2.8102,2.8118,2.8129,2.8138,2.8018,2.8017,2.8017,0,0,2.8175,2.8166,2.8188,2.8182,2.8171,2.8154,2.816,2.8142,2.8133,2.8152,2.8118,2.8127,2.8136,2.813,2.8128,2.8195,2.8168,2.8197,2.8241,2.8259,2.8268,2.8275,2.8299,2.8308,2.8201,2.8202,2.8202,0,2.8217,2.8231,2.8202,2.8218,2.8218,2.8178,2.8201,2.8196,2.8187,2.8188,2.8168,2.8179,2.817,2.8196,2.8213,2.8213,2.8218,2.8198,2.8269,2.8276,2.8283,2.8305,2.8314,2.8205,2.8205,2.8204,2.8204,0,2.8284,2.8294,2.8314,2.8307,2.8309,2.8328,2.8303,2.8309,2.8289,2.8274,2.8294,2.8282,2.8282,2.8287,2.8268,2.8312,2.8301,2.8275,2.8238,2.8297,2.8317,2.8325,2.821,2.8209,2.8208,2.8207,0,0,2.8382,2.8361,2.8368,2.8365,2.8352,2.836,2.8378,2.8379,2.8385,2.8381,2.8395,2.8405,2.8382,2.838,2.836,2.8376,2.843,2.8348,2.8348,2.8364,2.8478,2.8496,2.8506,2.8413,2.8414,2.8415,2.8478,0,2.8443,2.8472,2.8448,2.8481,2.8491,2.8455,2.8471,2.8465,2.8452,2.8459,2.8445,2.8452,2.8421,2.842,2.8435,2.842,2.8452,2.8415,2.8425,2.8426,2.8428,2.8517,2.8536,2.8596,2.8486,2.8487,2.8488,0,2.8518,2.8518,2.8553,2.8539,2.8542,2.8556,2.8556,2.8563,2.8556,2.8546,2.8545,2.8521,2.8538,2.8503,2.8526,2.8502,2.8505,2.8499,2.85,2.8499,2.846,2.8517,2.8615,2.8624,2.8501,2.85,2.8499,0,2.8586,2.8595,2.8617,2.8616,2.86,2.8611,2.8605,2.8596,2.8599,2.8599,2.86,2.8602,2.8603,2.8606,2.8583,2.856,2.8609,2.8572,2.8601,2.8602,2.8612,2.8611,2.871,2.8616,2.8616,2.8615,2.8615,0,2.8656,2.8679,2.8648,2.8661,2.8686,2.8659,2.8684,2.8674,2.8667,2.8678,2.8648,2.8659,2.8629,2.8637,2.862,2.8642,2.8643,2.8635,2.863,2.8637,2.8638,2.8637,2.8632,2.8618,2.8617,2.8617,2.8616,0,2.8736,2.8716,2.8737,2.8721,2.8718,2.8737,2.8723,2.8735,2.8722,2.8736,2.8738,2.8716,2.8725,2.8703,2.8708,2.8696,2.8728,2.8717,2.8731,2.8727,2.8757,2.8754,2.8858,2.887,2.8769,2.877,2.8771,0,2.8781,2.8798,2.8784,2.879,2.8786,2.8795,2.8798,2.8773,2.8777,2.8771,2.8784,2.879,2.8794,2.8809,2.8794,2.8798,2.8786,2.8822,2.8786,2.8793,2.8786,2.8785,2.8786,2.8829,2.883,2.8831,2.8832,0,2.8864,2.8854,2.886,2.8863,2.8867,2.8868,2.8867,2.8873,2.8846,2.8853,2.8861,2.8864,2.887,2.8877,2.8878,2.8871,2.8847,2.8844,2.8851,2.8858,2.8865,2.8861,2.875,2.8841,2.884,2.8839,2.8839,2.8839,2.8928,2.8941,2.8934,2.8942,2.8939,2.8938,2.8949,2.8938,2.8944,2.8947,2.8932,2.8945,2.8938,2.8937,2.8934,2.8943,2.8927,2.8937,2.8939,2.8942,2.8947,2.8865,2.8943,2.8943,2.8943,2.8943,2.8942,0,2.9009,2.9003,2.9011,2.901,2.9017,2.8995,2.8993,2.8999,2.9011,2.9007,2.9012,2.9022,2.9029,2.9015,2.902,2.903,2.9019,2.9032,2.903,2.9029,2.8961,2.8954,2.9041,2.9041,2.9041,2.9041,2.904,2.904,2.9052,2.9074,2.9063,2.9084,2.9078,2.909,2.9091,2.9091,2.9088,2.9101,2.9107,2.9098,2.9091,2.9095,2.91,2.9096,2.9099,2.9116,2.9108,2.9044,2.9034,2.9025,2.9018,2.9117,2.9117,2.9175,2.9175,2.9176]}]]